Tracking 32139 objects as of 17-Nov-2025
HD Live streaming from Space Station
objects crossing your sky now

STARLINK-34925

Track STARLINK-34925 now!
10-day predictions
STARLINK-34925 is classified as:


NORAD ID: 65249
Int'l Code: 2025-179Q
Perigee: 556.2 km
Apogee: 556.9 km
Inclination: 97.6 °
Period: 95.6 minutes
Semi major axis: 6927 km
RCS: Unknown
Launch date: August 18, 2025
Source: United States (US)
Launch site: AIR FORCE WESTERN TEST RANGE (AFWTR)
Your satellite tracking list
Your tracking list is empty




NASA's NSSDC Master Catalog

Two Line Element Set (TLE):
1 65249U 25179Q   25320.59497144  .00017664  00000-0  12244-2 0  9994
2 65249  97.6052   1.5252 0000534   5.7973 354.3260 15.05681820 14807
Source of the keplerian elements: AFSPC